SHU313 UHHH-ZBAA

Flight info

Callsign SHU313
Flight time N/A
Altitude 34000
Route RANOL B150 BIRBO B723 ODEKA T634 MAGIT/K0837S1035 R213 JMU G212 UKDUM W49 OSUBA
Aircraft A320/M-SDE3FGHIRWY/LB1

Departure

Time 2026-05-05 22:16
Airport Khabarovsk Novy Airport (UHHH)

Arrival

Time N/A
Airport Beijing Capital International Airport (ZBAA)
Time Latitude Longitude Altitude Speed Heading
2026-05-05 22:00 48.52527 135.17148 246 ft 0 kts 312°
2026-05-05 22:04 48.52520 135.17161 246 ft 3 kts 307°
2026-05-05 22:04 48.52508 135.17184 246 ft 3 kts 317°
2026-05-05 22:04 48.52492 135.17202 246 ft 3 kts 324°
2026-05-05 22:05 48.52476 135.17220 246 ft 3 kts 323°
2026-05-05 22:05 48.52460 135.17239 246 ft 3 kts 327°
2026-05-05 22:05 48.52448 135.17249 246 ft 1 kts 336°
2026-05-05 22:07 48.52454 135.17248 246 ft 4 kts 347°
2026-05-05 22:08 48.52484 135.17267 246 ft 5 kts 44°
2026-05-05 22:08 48.52510 135.17308 246 ft 7 kts 46°
2026-05-05 22:08 48.52532 135.17368 246 ft 6 kts 85°
2026-05-05 22:08 48.52512 135.17412 246 ft 7 kts 130°
2026-05-05 22:09 48.52472 135.17482 246 ft 9 kts 131°
2026-05-05 22:09 48.52436 135.17543 246 ft 7 kts 131°
2026-05-05 22:09 48.52392 135.17617 246 ft 12 kts 132°
2026-05-05 22:09 48.52339 135.17705 245 ft 11 kts 133°
2026-05-05 22:10 48.52293 135.17783 245 ft 9 kts 124°
2026-05-05 22:10 48.52301 135.17886 245 ft 11 kts 43°
2026-05-05 22:10 48.52363 135.17968 243 ft 14 kts 41°
2026-05-05 22:10 48.52441 135.18076 244 ft 15 kts 43°
2026-05-05 22:11 48.52522 135.18191 243 ft 17 kts 44°
2026-05-05 22:11 48.52611 135.18307 244 ft 17 kts 40°
2026-05-05 22:11 48.52704 135.18433 244 ft 18 kts 42°
2026-05-05 22:11 48.52790 135.18550 245 ft 15 kts 42°
2026-05-05 22:12 48.52875 135.18667 243 ft 19 kts 43°
2026-05-05 22:12 48.52974 135.18800 243 ft 19 kts 41°
2026-05-05 22:12 48.53073 135.18932 242 ft 19 kts 42°
2026-05-05 22:12 48.53161 135.19054 242 ft 16 kts 43°
2026-05-05 22:13 48.53247 135.19172 243 ft 19 kts 42°
2026-05-05 22:13 48.53347 135.19309 244 ft 19 kts 42°
2026-05-05 22:13 48.53445 135.19443 244 ft 21 kts 43°
2026-05-05 22:13 48.53557 135.19599 242 ft 23 kts 41°
2026-05-05 22:14 48.53677 135.19757 241 ft 23 kts 41°
2026-05-05 22:14 48.53791 135.19912 241 ft 16 kts 42°
2026-05-05 22:14 48.53871 135.20022 242 ft 16 kts 43°
2026-05-05 22:14 48.53940 135.20137 243 ft 12 kts 77°
2026-05-05 22:15 48.53910 135.20235 243 ft 9 kts 130°
2026-05-05 22:15 48.53863 135.20310 244 ft 12 kts 134°
2026-05-05 22:15 48.53812 135.20397 245 ft 10 kts 133°
2026-05-05 22:15 48.53757 135.20397 245 ft 9 kts 217°
2026-05-05 22:16 48.53606 135.20191 243 ft 66 kts 222°
2026-05-05 22:16 48.53067 135.19458 246 ft 139 kts 222°
2026-05-05 22:16 48.52228 135.18316 486 ft 171 kts 222°
2026-05-05 22:16 48.51373 135.17144 1506 ft 166 kts 226°
2026-05-05 22:17 48.50503 135.15926 2033 ft 179 kts 227°
2026-05-05 22:17 48.49552 135.14556 2266 ft 200 kts 228°
2026-05-05 22:17 48.48500 135.13036 2573 ft 220 kts 227°
2026-05-05 22:17 48.47367 135.11408 3202 ft 229 kts 227°
2026-05-05 22:18 48.46203 135.09743 3986 ft 232 kts 228°
2026-05-05 22:18 48.45016 135.08051 4790 ft 236 kts 229°
2026-05-05 22:18 48.43831 135.06365 5565 ft 238 kts 229°
2026-05-05 22:18 48.42787 135.04471 6376 ft 233 kts 252°
2026-05-05 22:19 48.42656 135.02126 7103 ft 227 kts 287°
2026-05-05 22:19 48.43207 134.99898 7907 ft 228 kts 292°
2026-05-05 22:19 48.43812 134.97689 8724 ft 228 kts 293°
2026-05-05 22:19 48.44413 134.95466 9519 ft 230 kts 292°
2026-05-05 22:20 48.44814 134.93946 10017 ft 231 kts 291°
2026-05-05 22:20 48.45391 134.91703 10727 ft 233 kts 291°
2026-05-05 22:20 48.45965 134.89410 11457 ft 234 kts 290°
2026-05-05 22:20 48.46536 134.87091 12063 ft 243 kts 290°
2026-05-05 22:21 48.47143 134.84592 12237 ft 265 kts 290°
2026-05-05 22:21 48.47805 134.81862 12373 ft 288 kts 290°
2026-05-05 22:21 48.48516 134.78916 12516 ft 309 kts 290°
2026-05-05 22:21 48.49259 134.75811 12951 ft 318 kts 289°
2026-05-05 22:22 48.50012 134.72650 13602 ft 322 kts 289°
2026-05-05 22:22 48.50770 134.69462 14217 ft 323 kts 289°
2026-05-05 22:22 48.51528 134.66261 14872 ft 324 kts 289°
2026-05-05 22:22 48.52290 134.63058 15520 ft 325 kts 288°
2026-05-05 22:23 48.53045 134.59887 16155 ft 326 kts 288°
2026-05-05 22:23 48.53811 134.56658 16801 ft 327 kts 288°
2026-05-05 22:23 48.54578 134.53423 17440 ft 329 kts 288°
2026-05-05 22:23 48.55351 134.50164 18064 ft 330 kts 287°
2026-05-05 22:24 48.56123 134.46894 18597 ft 331 kts 287°
2026-05-05 22:24 48.56896 134.43617 19162 ft 331 kts 287°
2026-05-05 22:24 48.57669 134.40342 19733 ft 331 kts 286°
2026-05-05 22:24 48.58441 134.37066 20299 ft 331 kts 286°
2026-05-05 22:25 48.59212 134.33789 20851 ft 331 kts 285°
2026-05-05 22:25 48.59981 134.30511 21387 ft 331 kts 285°
2026-05-05 22:25 48.60751 134.27229 21933 ft 332 kts 285°
2026-05-05 22:25 48.61521 134.23944 22466 ft 332 kts 284°
2026-05-05 22:26 48.62288 134.20651 22991 ft 332 kts 284°
2026-05-05 22:26 48.63053 134.17351 23478 ft 333 kts 284°
2026-05-05 22:26 48.63820 134.14044 23940 ft 333 kts 284°
2026-05-05 22:26 48.64585 134.10740 24388 ft 332 kts 283°
2026-05-05 22:27 48.65175 134.07374 24785 ft 331 kts 279°
2026-05-05 22:27 48.65724 134.03993 25182 ft 332 kts 279°
2026-05-05 22:27 48.66272 134.00598 25565 ft 333 kts 279°
2026-05-05 22:27 48.66822 133.97197 25954 ft 334 kts 279°
2026-05-05 22:28 48.67375 133.93779 26335 ft 335 kts 279°
2026-05-05 22:28 48.67921 133.90397 26654 ft 336 kts 278°
2026-05-05 22:28 48.68481 133.86914 27010 ft 337 kts 278°
2026-05-05 22:28 48.69029 133.83503 27355 ft 338 kts 278°
2026-05-05 22:29 48.69588 133.80036 27697 ft 339 kts 278°
2026-05-05 22:29 48.70147 133.76559 28031 ft 340 kts 278°
2026-05-05 22:29 48.70703 133.73075 28358 ft 341 kts 278°
2026-05-05 22:29 48.71260 133.69574 28763 ft 342 kts 278°
2026-05-05 22:30 48.71816 133.66067 29137 ft 342 kts 279°
2026-05-05 22:30 48.72373 133.62568 29508 ft 341 kts 279°
2026-05-05 22:30 48.72930 133.59075 29969 ft 339 kts 279°
2026-05-05 22:30 48.73483 133.55609 30297 ft 338 kts 279°
2026-05-05 22:31 48.74032 133.52133 30543 ft 340 kts 279°
2026-05-05 22:31 48.74578 133.48645 30786 ft 341 kts 279°
2026-05-05 22:31 48.75127 133.45132 31012 ft 343 kts 279°
2026-05-05 22:31 48.75678 133.41606 31253 ft 345 kts 279°
2026-05-05 22:32 48.76233 133.38060 31483 ft 346 kts 279°
2026-05-05 22:32 48.76789 133.34500 31720 ft 348 kts 279°
2026-05-05 22:32 48.77346 133.30923 31960 ft 349 kts 279°
2026-05-05 22:32 48.77902 133.27333 32195 ft 351 kts 279°
2026-05-05 22:33 48.78460 133.23726 32430 ft 352 kts 279°
2026-05-05 22:33 48.79023 133.20089 32654 ft 356 kts 279°
2026-05-05 22:33 48.79591 133.16414 32788 ft 360 kts 279°
2026-05-05 22:33 48.80157 133.12754 32967 ft 362 kts 279°
2026-05-05 22:34 48.80729 133.09021 33163 ft 364 kts 279°
2026-05-05 22:34 48.81312 133.05221 33381 ft 366 kts 279°
2026-05-05 22:34 48.81837 133.01488 33581 ft 367 kts 275°
2026-05-05 22:34 48.82026 132.97637 33702 ft 367 kts 268°
2026-05-05 22:35 48.81847 132.93811 33785 ft 361 kts 265°
2026-05-05 22:35 48.80711 132.86468 33804 ft 363 kts 246°
2026-05-05 22:36 48.77779 132.80119 33804 ft 370 kts 239°
2026-05-05 22:36 48.74609 132.73979 33805 ft 370 kts 238°
2026-05-05 22:37 48.71449 132.67811 33805 ft 370 kts 239°
2026-05-05 22:37 48.68339 132.61614 33790 ft 369 kts 240°
2026-05-05 22:38 48.65251 132.55435 33817 ft 367 kts 240°
2026-05-05 22:38 48.62169 132.49290 33815 ft 366 kts 240°
2026-05-05 22:39 48.59086 132.43172 33816 ft 366 kts 240°
2026-05-05 22:39 48.56004 132.37069 33808 ft 365 kts 240°
2026-05-05 22:40 48.52923 132.30974 33764 ft 364 kts 240°
2026-05-05 22:40 48.49862 132.24928 33802 ft 361 kts 240°
2026-05-05 22:41 48.46835 132.18968 33814 ft 360 kts 240°
2026-05-05 22:41 48.43794 132.13000 33814 ft 358 kts 240°
2026-05-05 22:42 48.40759 132.07055 33808 ft 358 kts 240°
2026-05-05 22:42 48.37729 132.01120 33800 ft 357 kts 240°
2026-05-05 22:43 48.34697 131.95192 33801 ft 358 kts 240°
2026-05-05 22:43 48.31652 131.89274 33799 ft 358 kts 240°
2026-05-05 22:44 48.28608 131.83364 33798 ft 358 kts 240°
2026-05-05 22:44 48.25563 131.77455 33797 ft 357 kts 240°
2026-05-05 22:45 48.22521 131.71552 33771 ft 357 kts 240°
2026-05-05 22:45 48.19480 131.65690 33769 ft 359 kts 239°
2026-05-05 22:46 48.16401 131.59781 33767 ft 360 kts 239°
2026-05-05 22:46 48.12768 131.54458 33769 ft 378 kts 224°
2026-05-05 22:47 48.08230 131.50310 33773 ft 383 kts 221°
2026-05-05 22:47 48.03683 131.46177 33767 ft 382 kts 222°
2026-05-05 22:48 47.99131 131.42039 33784 ft 382 kts 222°
2026-05-05 22:48 47.94590 131.37913 33792 ft 382 kts 222°
2026-05-05 22:49 47.90078 131.33819 33794 ft 382 kts 222°
2026-05-05 22:49 47.85540 131.29707 33796 ft 382 kts 222°
2026-05-05 22:50 47.81002 131.25610 33784 ft 381 kts 222°
2026-05-05 22:50 47.76474 131.21544 33788 ft 380 kts 222°
2026-05-05 22:51 47.71951 131.17491 33786 ft 379 kts 222°
2026-05-05 22:51 47.67417 131.13461 33783 ft 381 kts 221°
2026-05-05 22:52 47.62771 131.09644 33767 ft 382 kts 220°
2026-05-05 22:52 47.58100 131.05915 33770 ft 379 kts 221°
2026-05-05 22:53 47.53486 131.02190 33794 ft 376 kts 221°
2026-05-05 22:53 47.48913 130.98450 33797 ft 375 kts 221°
2026-05-05 22:54 47.44347 130.94721 33775 ft 374 kts 221°
2026-05-05 22:54 47.39785 130.91017 33782 ft 374 kts 221°
2026-05-05 22:55 47.35252 130.87345 33790 ft 373 kts 221°
2026-05-05 22:55 47.30685 130.83670 33789 ft 373 kts 221°
2026-05-05 22:56 47.26132 130.79996 33784 ft 373 kts 221°
2026-05-05 22:56 47.21581 130.76330 33752 ft 373 kts 221°
2026-05-05 22:57 47.17030 130.72677 33765 ft 372 kts 221°
2026-05-05 22:57 47.12481 130.69031 33772 ft 372 kts 221°
2026-05-05 22:58 47.07937 130.65394 33778 ft 372 kts 221°
2026-05-05 22:58 47.03390 130.61763 33763 ft 372 kts 220°
2026-05-05 22:59 46.98842 130.58145 33767 ft 373 kts 220°
2026-05-05 22:59 46.94251 130.54501 33775 ft 376 kts 220°
2026-05-05 23:00 46.87447 130.48966 33788 ft 367 kts 226°
2026-05-05 23:00 46.85490 130.46600 33788 ft 356 kts 234°
2026-05-05 23:00 46.83912 130.43881 33770 ft 348 kts 242°
2026-05-05 23:01 46.81783 130.37681 33790 ft 343 kts 252°
2026-05-05 23:01 46.80035 130.31202 33791 ft 343 kts 252°
2026-05-05 23:02 46.78268 130.24735 33791 ft 343 kts 252°
2026-05-05 23:02 46.76502 130.18275 33832 ft 343 kts 252°
2026-05-05 23:03 46.74732 130.11815 33832 ft 342 kts 252°
2026-05-05 23:03 46.72980 130.05416 33799 ft 341 kts 251°
2026-05-05 23:04 46.71216 129.98994 33798 ft 342 kts 251°
2026-05-05 23:04 46.69446 129.92578 33794 ft 341 kts 251°
2026-05-05 23:05 46.67960 129.87203 33793 ft 341 kts 251°
2026-05-05 23:05 46.66185 129.80788 33796 ft 341 kts 251°
2026-05-05 23:06 46.64417 129.74425 33799 ft 341 kts 251°
2026-05-05 23:06 46.62624 129.68027 33797 ft 342 kts 251°
2026-05-05 23:08 46.57039 129.48065 33801 ft 343 kts 251°
2026-05-05 23:08 46.55233 129.41659 33801 ft 343 kts 251°
2026-05-05 23:09 46.53421 129.35243 33805 ft 344 kts 251°
2026-05-05 23:09 46.51555 129.28635 33787 ft 345 kts 250°
2026-05-05 23:10 46.49734 129.22214 33785 ft 346 kts 250°
2026-05-05 23:10 46.47888 129.15743 33848 ft 347 kts 250°
2026-05-05 23:11 46.46337 129.10331 33843 ft 347 kts 250°
2026-05-05 23:11 46.44504 129.03921 33836 ft 346 kts 250°
2026-05-05 23:12 46.42659 128.97481 33838 ft 346 kts 250°
2026-05-05 23:12 46.40812 128.91055 33811 ft 346 kts 249°
2026-05-05 23:13 46.38956 128.84622 33812 ft 346 kts 249°
2026-05-05 23:13 46.37102 128.78200 33812 ft 346 kts 250°
2026-05-05 23:14 46.35239 128.71776 33820 ft 346 kts 249°